TimeCEST,TemperatureF,Dew PointF,Humidity,Sea Level PressureIn,VisibilityMPH,Wind Direction,Wind SpeedMPH,Gust SpeedMPH,PrecipitationIn,Events,Conditions,WindDirDegrees,DateUTC
12:00 AM,60.8,51.8,72,30.01,-9999.0,NNE,4.6,-,N/A,,Clear,20,2013-06-13 22:00:00
12:30 AM,57.2,51.8,82,30.01,-9999.0,ENE,5.8,-,N/A,,Clear,60,2013-06-13 22:30:00
1:00 AM,57.2,51.8,82,30.01,-9999.0,ENE,6.9,-,N/A,,Clear,60,2013-06-13 23:00:00
1:30 AM,57.2,51.8,82,30.01,-9999.0,NE,6.9,-,N/A,,Clear,40,2013-06-13 23:30:00
2:00 AM,58,50,68,30.00,19,NE,6.7,,,,,40,2013-06-14 00:00:00
2:00 AM,59.0,51.8,77,30.01,-9999.0,NNE,8.1,-,N/A,,Clear,30,2013-06-14 00:00:00
2:30 AM,55.4,50.0,82,29.98,-9999.0,ENE,5.8,-,N/A,,Clear,60,2013-06-14 00:30:00
3:00 AM,57.2,50.0,77,29.98,-9999.0,NE,6.9,-,N/A,,Clear,50,2013-06-14 01:00:00
3:30 AM,55.4,50.0,82,29.98,-9999.0,NE,5.8,-,N/A,,Clear,50,2013-06-14 01:30:00
4:00 AM,55.4,50.0,82,29.98,-9999.0,NW,3.5,-,N/A,,Clear,320,2013-06-14 02:00:00
4:30 AM,53.6,48.2,82,29.98,-9999.0,ENE,5.8,-,N/A,,Clear,60,2013-06-14 02:30:00
5:00 AM,53.6,48.2,82,29.98,-9999.0,NNW,3.5,-,N/A,,Clear,340,2013-06-14 03:00:00
5:30 AM,55.4,50.0,82,29.98,-9999.0,Variable,1.2,-,N/A,,Clear,0,2013-06-14 03:30:00
6:00 AM,55.4,50.0,82,30.01,-9999.0,Calm,Calm,-,N/A,,Clear,0,2013-06-14 04:00:00
6:30 AM,57.2,51.8,82,30.01,-9999.0,Calm,Calm,-,N/A,,Clear,0,2013-06-14 04:30:00
7:00 AM,59.0,51.8,77,30.01,-9999.0,Variable,2.3,-,N/A,,Clear,0,2013-06-14 05:00:00
7:30 AM,60.8,53.6,77,30.04,-9999.0,WNW,6.9,-,N/A,,Clear,290,2013-06-14 05:30:00
8:00 AM,65,54,60,30.03,19,WNW,6.7,,,,Scattered Clouds,290,2013-06-14 06:00:00
8:00 AM,64.4,53.6,68,30.04,-9999.0,NW,3.5,-,N/A,,Clear,320,2013-06-14 06:00:00
8:30 AM,66.2,55.4,68,30.04,-9999.0,West,6.9,-,N/A,,Clear,280,2013-06-14 06:30:00
9:00 AM,69.8,53.6,56,30.04,-9999.0,NNW,5.8,-,N/A,,Clear,340,2013-06-14 07:00:00
9:30 AM,71.6,55.4,57,30.04,-9999.0,NNE,4.6,-,N/A,,Clear,20,2013-06-14 07:30:00
10:00 AM,71.6,53.6,53,30.04,6.2,NW,11.5,-,N/A,,Partly Cloudy,320,2013-06-14 08:00:00
10:30 AM,71.6,55.4,57,30.06,6.2,North,10.4,-,N/A,,Mostly Cloudy,350,2013-06-14 08:30:00
11:00 AM,71.6,55.4,57,30.06,6.2,NW,10.4,-,N/A,,Mostly Cloudy,320,2013-06-14 09:00:00
11:30 AM,71.6,57.2,60,30.09,6.2,NW,12.7,-,N/A,,Mostly Cloudy,320,2013-06-14 09:30:00
12:00 PM,73.4,55.4,53,30.09,6.2,WNW,12.7,-,N/A,,Mostly Cloudy,300,2013-06-14 10:00:00
12:30 PM,68.0,55.4,64,30.09,6.2,WNW,16.1,-,N/A,,Mostly Cloudy,300,2013-06-14 10:30:00
1:00 PM,68.0,55.4,64,30.12,6.2,NW,16.1,-,N/A,,Mostly Cloudy,310,2013-06-14 11:00:00
1:30 PM,66.2,55.4,68,30.12,6.2,NW,16.1,-,N/A,,Mostly Cloudy,310,2013-06-14 11:30:00
2:00 PM,68,55,53,30.09,22,NW,13.4,,,,Mostly Cloudy,320,2013-06-14 12:00:00
2:00 PM,68.0,55.4,64,30.09,-9999.0,NW,16.1,-,N/A,,Clear,310,2013-06-14 12:00:00
2:30 PM,68.0,55.4,64,30.09,-9999.0,NW,12.7,-,N/A,,Clear,310,2013-06-14 12:30:00
3:00 PM,68.0,55.4,64,30.09,-9999.0,NW,15.0,-,N/A,,Clear,310,2013-06-14 13:00:00
3:30 PM,69.8,53.6,56,30.09,-9999.0,WNW,13.8,-,N/A,,Clear,300,2013-06-14 13:30:00
4:00 PM,68.0,55.4,64,30.09,-9999.0,NW,10.4,-,N/A,,Clear,310,2013-06-14 14:00:00
4:30 PM,71.6,53.6,53,30.09,-9999.0,NW,5.8,-,N/A,,Clear,310,2013-06-14 14:30:00
5:00 PM,71.6,55.4,57,30.06,-9999.0,WNW,6.9,-,N/A,,Clear,290,2013-06-14 15:00:00
5:30 PM,71.6,53.6,53,30.06,-9999.0,North,5.8,-,N/A,,Clear,350,2013-06-14 15:30:00
6:00 PM,69.8,55.4,60,30.06,6.2,NW,4.6,-,N/A,,Scattered Clouds,320,2013-06-14 16:00:00
6:30 PM,69.8,53.6,56,30.06,6.2,NNW,8.1,-,N/A,,Scattered Clouds,340,2013-06-14 16:30:00
7:00 PM,68.0,57.2,68,30.06,6.2,East,8.1,-,N/A,,Scattered Clouds,80,2013-06-14 17:00:00
7:30 PM,66.2,57.2,73,30.06,6.2,ENE,11.5,-,N/A,,Scattered Clouds,60,2013-06-14 17:30:00
8:00 PM,66,56,63,30.06,28,ENE,8.9,,,,Partly Cloudy,60,2013-06-14 18:00:00
8:00 PM,66.2,57.2,73,30.06,6.2,ENE,9.2,-,N/A,,Scattered Clouds,60,2013-06-14 18:00:00
8:30 PM,64.4,57.2,77,30.06,6.2,ENE,8.1,-,N/A,,Scattered Clouds,60,2013-06-14 18:30:00
9:00 PM,64.4,57.2,77,30.06,6.2,ENE,5.8,-,N/A,,Mostly Cloudy,60,2013-06-14 19:00:00
9:30 PM,64.4,57.2,77,30.06,6.2,ENE,6.9,-,N/A,,Mostly Cloudy,60,2013-06-14 19:30:00
10:00 PM,64.4,57.2,77,30.09,6.2,NE,5.8,-,N/A,,Scattered Clouds,50,2013-06-14 20:00:00
10:30 PM,62.6,55.4,77,30.06,6.2,ENE,11.5,-,N/A,,Scattered Clouds,70,2013-06-14 20:30:00
11:00 PM,62.6,55.4,77,30.06,6.2,ENE,8.1,-,N/A,,Scattered Clouds,60,2013-06-14 21:00:00
11:30 PM,60.8,53.6,77,30.06,6.2,ENE,9.2,-,N/A,,Scattered Clouds,60,2013-06-14 21:30:00
11:38 PM,60.8,53.6,77,30.06,6.2,ENE,10.4,-,N/A,Rain,Light Rain,60,2013-06-14 21:38:00